Location: Betz
(49.1556°N, 2.9558°E)
Time: 06:01:53
(UTC+00:00)

USA 186 - Pass Details

Date: 18 September 2019
Orbit: 261 x 450 km, 96.9° (Epoch: 07 October)

Event Time Altitude Azimuth Distance (km) Brightness Sun altitude
Exits shadow 19:16:13 - 167° (SSE) 1,635 4.4 -13.7°
Reaches altitude 10° 19:16:23 10° 167° (SSE) 1,567 4.3 -13.8°
Maximum altitude 19:19:46 89° 252° (WSW) 460 1.9 -14.3°
Drops below altitude 10° 19:23:14 10° 347° (NNW) 1,601 5.1 -14.8°
Sets 19:25:17 0° 348° (NNW) 2,475 6.1 -15.1°
